Ozark, AL

1:10 AM CST on January 18, 2018 (GMT -0600)
Cairns Army Air Field

Weather History for KOZR - May, 2014

Change the Weather History Date:

Friday, May 9, 2014

  Actual Average Record
Temperature  
Mean Temperature 76 °F -  
Max Temperature 83 °F 81 °F 91 °F (2002)
Min Temperature 68 °F 58 °F 53 °F (2005)
Cooling Degree Days 10    
Growing Degree Days 26 (Base 50)    
Moisture  
Dew Point 68 °F    
Average Humidity 78    
Maximum Humidity 95    
Minimum Humidity 55    
Precipitation  
Precipitation 0.00 in - - ()
Sea Level Pressure  
Sea Level Pressure 30.10 in    
Wind  
Wind Speed 6 mph (SSE)    
Max Wind Speed 16 mph    
Max Gust Speed 20 mph    
Visibility 10 miles    
Events      
Averages and records for this station are not official NWS values.
T = Trace of Precipitation, MM = Missing Value Source: NWS Daily Summary

Daily Weather History Graph

Daily Weather History Graph

Search for Another Location

Airport or City:

Trip Planner

Search our weather history database for the weather conditions in past years. The results will help you decide how hot, cold, wet, or windy it might be!

Date:

Astronomy

May. 09, 2014 Rise Set
Actual Time 5:51 AM CDT 7:27 PM CDT
Civil Twilight 5:25 AM CDT 7:54 PM CDT
Nautical Twilight 4:53 AM CDT 8:25 PM CDT
Astronomical Twilight 4:20 AM CDT 8:58 PM CDT
Moon 2:43 PM CDT (5/9) 2:32 AM CDT (5/9)
Length of Visible Light 14h 28m
Length of Day
13h 36m
Waxing Gibbous, 74% of the Moon is Illuminated
May 9
Waxing Gibbous
May 14
Full
May 21
Last Quarter
May 28
New
Jun 5
First Quarter

Hourly Weather History & Observations

Time (CDT) Temp. Heat Index Dew Point Humidity Pressure Visibility Wind Dir Wind Speed Gust Speed Precip Events Conditions
12:58 AM 70.7 °F - 67.6 °F 90% 30.12 in 10.0 mi South 4.6 mph - N/A   Mostly Cloudy
1:58 AM 70.2 °F - 67.8 °F 92% 30.10 in 10.0 mi SE 3.5 mph - N/A   Overcast
2:58 AM 69.3 °F - 67.1 °F 93% 30.08 in 10.0 mi SE 2.3 mph - N/A   Overcast
3:58 AM 68.9 °F - 67.1 °F 94% 30.09 in 10.0 mi Calm Calm - N/A   Mostly Cloudy
4:58 AM 69.6 °F - 67.8 °F 94% 30.10 in 10.0 mi SE 3.5 mph - N/A   Mostly Cloudy
5:58 AM 69.8 °F - 68.2 °F 95% 30.11 in 10.0 mi SE 5.8 mph - N/A   Overcast
6:58 AM 70.5 °F - 68.4 °F 93% 30.14 in 10.0 mi SE 5.8 mph - N/A   Overcast
7:58 AM 72.7 °F - 68.9 °F 88% 30.14 in 10.0 mi SSE 9.2 mph - N/A   Mostly Cloudy
8:58 AM 77.2 °F - 68.5 °F 75% 30.16 in 10.0 mi SSE 10.4 mph - N/A   Scattered Clouds
9:58 AM 79.7 °F - 67.6 °F 66% 30.15 in 10.0 mi South 11.5 mph - N/A   Mostly Cloudy
10:58 AM 81.1 °F 83.9 °F 67.8 °F 64% 30.15 in 10.0 mi SSE 16.1 mph 19.6 mph N/A   Mostly Cloudy
11:58 AM 82.6 °F 85.1 °F 67.1 °F 59% 30.14 in 10.0 mi South 12.7 mph - N/A   Mostly Cloudy
12:58 PM 83.1 °F 85.7 °F 66.7 °F 58% 30.12 in 10.0 mi South 13.8 mph - N/A   Mostly Cloudy
1:58 PM 82.8 °F 84.5 °F 64.9 °F 55% 30.11 in 10.0 mi SSE 10.4 mph - N/A   Mostly Cloudy
2:58 PM 82.9 °F 85.4 °F 66.7 °F 58% 30.10 in 10.0 mi South 10.4 mph - N/A   Scattered Clouds
3:58 PM 81.7 °F 83.6 °F 65.7 °F 58% 30.08 in 10.0 mi South 12.7 mph - N/A   Scattered Clouds
4:58 PM 80.4 °F 82.6 °F 66.2 °F 62% 30.07 in 10.0 mi SSE 11.5 mph - N/A   Scattered Clouds
5:58 PM 78.6 °F - 67.6 °F 69% 30.06 in 10.0 mi South 8.1 mph - N/A   Mostly Cloudy
6:58 PM 77.2 °F - 68.5 °F 75% 30.06 in 10.0 mi South 6.9 mph - N/A   Scattered Clouds
7:58 PM 75.2 °F - 69.1 °F 81% 30.07 in 10.0 mi South 4.6 mph - N/A   Partly Cloudy
8:58 PM 74.7 °F - 68.9 °F 82% 30.08 in 10.0 mi Calm Calm - N/A   Partly Cloudy
9:58 PM 73.8 °F - 68.7 °F 84% 30.09 in 10.0 mi SE 2.3 mph - N/A   Mostly Cloudy
10:58 PM 72.9 °F - 69.1 °F 88% 30.09 in 10.0 mi SE 4.6 mph - N/A   Scattered Clouds
11:58 PM 72.1 °F - 68.9 °F 89% 30.09 in 10.0 mi SE 3.5 mph - N/A   Mostly Cloudy